KK4WXG Weather Reports


time (UTC)temp
F
wind
direction
speed
knots
gust
knots
rain 1hr
in
rain 24hr
in
rain mn
in
humidity
%
barometer
mb
20260510033746 53 145 0.0 1.7 0.00 0.00 0.00 87 1010.3
20260510033244 53 297 1.7 1.7 0.00 0.00 0.00 87 1009.9
20260510032740 54 140 0.0 1.7 0.00 0.00 0.00 85 1010.0
20260510032236 55 129 0.0 0.9 0.00 0.00 0.00 83 1010.1
20260510031732 55 139 1.7 1.7 0.00 0.00 0.00 82 1010.1
20260510031227 56 299 0.0 1.7 0.00 0.00 0.00 83 1010.1
20260510030727 55 284 0.9 1.7 0.00 0.00 0.00 86 1010.1
20260510030225 54 332 1.7 1.7 0.00 0.00 0.00 86 1010.0
20260510025722 55 201 1.7 1.7 0.00 0.00 0.00 84 1010.2
20260510025219 55 72 1.7 1.7 0.00 0.00 0.00 85 1010.0
20260510024716 55 0 1.7 3.5 0.00 0.00 0.00 83 1010.2
20260510024213 56 86 0.9 2.6 0.00 0.00 0.00 82 1010.0
20260510023708 56 76 2.6 2.6 0.00 0.00 0.00 79 1009.8
20260510023206 57 129 0.0 0.9 0.00 0.00 0.00 77 1009.8
20260510022701 58 243 1.7 1.7 0.00 0.00 0.00 76 1009.9
20260510022156 59 280 1.7 1.7 0.00 0.00 0.00 74 1009.9
20260510021651 59 32 0.0 0.0 0.00 0.00 0.00 74 1009.6
20260510021149 59 30 1.7 1.7 0.00 0.00 0.00 74 1009.7
20260510020643 59 356 0.9 1.7 0.00 0.00 0.00 73 1009.5
20260510020139 60 31 1.7 1.7 0.00 0.00 0.00 73 1009.6
20260510015635 60 19 0.9 1.7 0.00 0.00 0.00 71 1009.3
20260510015132 60 321 0.0 0.9 0.00 0.00 0.00 71 1009.3
20260510014627 61 347 0.0 1.7 0.00 0.00 0.00 69 1009.4
20260510014125 61 322 0.0 0.0 0.00 0.00 0.00 68 1009.5
20260510013625 61 301 1.7 1.7 0.00 0.00 0.00 68 1009.4
20260510013121 61 269 1.7 1.7 0.00 0.00 0.00 68 1009.4
20260510012620 61 283 0.9 0.9 0.00 0.00 0.00 69 1009.2
20260510012117 61 309 0.0 0.0 0.00 0.00 0.00 69 1008.9
20260510011616 60 309 0.0 0.9 0.00 0.00 0.00 70 1008.8
20260510011112 61 240 0.0 0.0 0.00 0.00 0.00 69 1008.9
20260510010609 62 214 0.9 1.7 0.00 0.00 0.00 68 1008.7
20260510010106 62 220 0.9 1.7 0.00 0.00 0.00 67 1008.7
20260510005601 62 218 0.0 0.0 0.00 0.00 0.00 67 1008.5
20260510005059 62 269 0.0 0.9 0.00 0.00 0.00 67 1008.5
20260510004557 62 200 0.0 1.7 0.00 0.00 0.00 66 1008.3
20260510004055 63 89 0.0 0.9 0.00 0.00 0.00 65 1008.4
20260510003551 63 55 0.0 1.7 0.00 0.00 0.00 64 1008.4
20260510003047 64 336 0.0 0.9 0.00 0.00 0.00 64 1008.4
20260510002542 65 23 0.9 1.7 0.00 0.00 0.00 62 1008.4
20260510002040 65 73 1.7 3.5 0.00 0.00 0.00 60 1008.2
20260510001537 66 125 0.9 1.7 0.00 0.00 0.00 60 1008.2
20260510001035 66 94 0.9 1.7 0.00 0.00 0.00 59 1008.3
20260510000530 67 89 0.9 1.7 0.00 0.00 0.00 58 1008.0
20260510000027 68 48 0.9 1.7 0.00 0.00 0.00 56 1008.2
20260509235524 70 50 0.0 0.9 0.00 0.00 0.00 54 1008.4
20260509235021 71 22 0.0 0.0 0.00 0.00 0.00 50 1008.1
20260509234517 71 297 0.0 0.0 0.00 0.00 0.00 49 1008.0
20260509234015 71 293 0.0 1.7 0.00 0.00 0.00 49 1008.3
20260509233512 72 326 0.0 1.7 0.00 0.00 0.00 48 1008.2
20260509233009 73 29 0.0 0.9 0.00 0.00 0.00 47 1008.2
20260509232506 75 11 0.0 0.9 0.00 0.00 0.00 44 1008.0
20260509232002 77 242 0.0 0.0 0.00 0.00 0.00 44 1008.2
20260509231459 76 259 0.9 0.9 0.00 0.00 0.00 42 1008.0
20260509230956 76 288 0.0 0.9 0.00 0.00 0.00 44 1008.0
20260509230453 75 284 0.0 0.9 0.00 0.00 0.00 45 1008.0
20260509225949 74 234 0.9 3.5 0.00 0.00 0.00 45 1008.1
20260509225446 74 198 1.7 2.6 0.00 0.00 0.00 45 1007.9
20260509224942 75 213 1.7 2.6 0.00 0.00 0.00 46 1008.0
20260509224437 74 256 0.0 2.6 0.00 0.00 0.00 45 1008.1
20260509223935 75 195 0.9 2.6 0.00 0.00 0.00 47 1008.2
20260509223431 74 198 3.5 3.5 0.00 0.00 0.00 47 1008.0
20260509222929 75 222 1.7 3.5 0.00 0.00 0.00 45 1007.8
20260509222423 74 211 1.7 2.6 0.00 0.00 0.00 46 1008.1
20260509221919 73 234 3.5 3.5 0.00 0.00 0.00 48 1008.1
20260509221416 72 204 1.7 1.7 0.00 0.00 0.00 49 1008.2
20260509220912 73 242 2.6 5.2 0.00 0.00 0.00 48 1008.1
20260509220408 72 210 1.7 4.3 0.00 0.00 0.00 50 1008.1
20260509215904 72 202 3.5 5.2 0.00 0.00 0.00 49 1008.2
20260509215400 73 185 1.7 6.1 0.00 0.00 0.00 50 1008.0
20260509214858 73 206 4.3 4.3 0.00 0.00 0.00 49 1007.9
20260509214355 72 211 3.5 4.3 0.00 0.00 0.00 49 1008.0
20260509213852 73 186 2.6 3.5 0.00 0.00 0.00 49 1007.9
20260509213347 73 243 1.7 1.7 0.00 0.00 0.00 49 1007.9
20260509212845 72 308 0.9 0.9 0.00 0.00 0.00 51 1008.0
20260509212342 71 103 0.0 1.7 0.00 0.00 0.00 51 1008.0
20260509211838 72 112 1.7 1.7 0.00 0.00 0.00 49 1007.8
20260509211334 72 321 0.0 0.9 0.00 0.00 0.00 50 1008.0
20260509210831 72 193 0.0 0.0 0.00 0.00 0.00 53 1007.9
20260509210329 71 193 0.0 0.0 0.00 0.00 0.00 49 1007.8
20260509205828 71 253 2.6 2.6 0.00 0.00 0.00 52 1007.9
20260509205323 70 140 1.7 2.6 0.00 0.00 0.00 50 1008.0
20260509204820 70 181 1.7 3.5 0.00 0.00 0.00 53 1008.1
20260509204316 70 201 3.5 4.3 0.00 0.00 0.00 53 1008.1
20260509203812 70 166 2.6 3.5 0.00 0.00 0.00 53 1008.0
20260509203309 71 259 3.5 3.5 0.00 0.00 0.00 51 1008.0
20260509202806 70 231 0.9 1.7 0.00 0.00 0.00 51 1007.9
20260509202305 70 158 1.7 2.6 0.00 0.00 0.00 51 1007.8
20260509201801 71 130 1.7 3.5 0.00 0.00 0.00 51 1008.1
20260509201258 70 192 0.9 3.5 0.00 0.00 0.00 49 1008.1
20260509200754 71 206 1.7 2.6 0.00 0.00 0.00 52 1008.1
20260509200249 71 180 0.9 4.3 0.00 0.00 0.00 52 1008.0
20260509195746 71 208 5.2 5.2 0.00 0.00 0.00 49 1008.1
20260509195241 71 156 3.5 4.3 0.00 0.00 0.00 51 1008.4
20260509194736 72 174 2.6 7.8 0.00 0.00 0.00 48 1008.3
20260509194232 72 306 0.0 1.7 0.00 0.00 0.00 49 1008.2
20260509193730 72 188 0.0 3.5 0.00 0.00 0.00 46 1008.2
20260509193229 71 222 4.3 5.2 0.00 0.00 0.00 49 1008.2
20260509192725 71 169 1.7 7.0 0.00 0.00 0.00 50 1008.1
20260509192220 74 183 3.5 7.8 0.00 0.00 0.00 51 1008.3
20260509191716 74 215 3.5 5.2 0.00 0.00 0.00 46 1008.4
20260509191213 73 212 3.5 5.2 0.00 0.00 0.00 47 1008.4
20260509190709 72 200 5.2 6.1 0.00 0.00 0.00 51 1008.5
20260509190206 73 84 5.2 7.8 0.00 0.00 0.00 45 1008.7
20260509185704 72 200 0.0 1.7 0.00 0.00 0.00 49 1008.6
20260509185159 72 304 1.7 3.5 0.00 0.00 0.00 49 1008.8
20260509184657 72 267 0.0 5.2 0.00 0.00 0.00 46 1008.8
20260509184154 72 130 0.0 4.3 0.00 0.00 0.00 49 1009.0
20260509183651 71 46 2.6 5.2 0.00 0.00 0.00 47 1008.9
20260509183146 70 197 4.3 5.2 0.00 0.00 0.00 50 1009.0
20260509182642 70 193 4.3 5.2 0.00 0.00 0.00 48 1008.9
20260509182139 70 224 3.5 5.2 0.00 0.00 0.00 47 1008.9
20260509181637 69 196 3.5 4.3 0.00 0.00 0.00 45 1009.2
20260509181135 68 148 1.7 3.5 0.00 0.00 0.00 49 1009.3
20260509180631 68 151 4.3 5.2 0.00 0.00 0.00 47 1009.6
20260509180127 69 79 5.2 7.8 0.00 0.00 0.00 44 1009.7
20260509175623 69 76 2.6 5.2 0.00 0.00 0.00 51 1009.8
20260509175120 68 118 2.6 4.3 0.00 0.00 0.00 50 1009.6
20260509174616 67 126 2.6 3.5 0.00 0.00 0.00 54 1009.5
20260509174111 67 129 3.5 5.2 0.00 0.00 0.00 51 1009.8
20260509173607 67 57 0.9 4.3 0.00 0.00 0.00 52 1010.1
20260509173103 67 104 3.5 3.5 0.00 0.00 0.00 53 1010.1
20260509172600 67 149 1.7 5.2 0.00 0.00 0.00 52 1010.3
20260509172056 67 98 2.6 3.5 0.00 0.00 0.00 51 1009.9
20260509171552 67 150 1.7 3.5 0.00 0.00 0.00 50 1010.4
20260509171048 67 205 2.6 3.5 0.00 0.00 0.00 51 1010.5
20260509170544 66 89 0.0 1.7 0.00 0.00 0.00 54 1010.6
20260509170041 66 148 1.7 4.3 0.00 0.00 0.00 50 1010.7
20260509165539 66 144 2.6 4.3 0.00 0.00 0.00 52 1010.8
20260509165035 67 102 2.6 4.3 0.00 0.00 0.00 50 1010.5
20260509164531 68 62 1.7 6.1 0.00 0.00 0.00 48 1010.2
20260509164027 69 142 3.5 5.2 0.00 0.00 0.00 49 1010.3
20260509163525 68 348 0.0 3.5 0.00 0.00 0.00 50 1010.1
20260509163020 67 82 5.2 8.7 0.00 0.00 0.00 51 1010.0
20260509162518 68 83 6.1 7.0 0.00 0.00 0.00 51 1009.9
20260509162013 68 45 6.1 7.8 0.00 0.00 0.00 50 1010.1
20260509161510 68 118 4.3 6.1 0.00 0.00 0.00 51 1010.1
20260509161005 68 15 0.9 6.1 0.00 0.00 0.00 51 1010.1
20260509160501 68 79 2.6 4.3 0.00 0.00 0.00 54 1010.2
20260509155956 67 33 4.3 5.2 0.00 0.00 0.00 52 1010.3
20260509155453 67 290 2.6 6.1 0.00 0.00 0.00 48 1010.5
20260509154949 68 1 0.9 5.2 0.00 0.00 0.00 52 1010.4
20260509154445 67 111 4.3 4.3 0.00 0.00 0.00 53 1010.2
20260509153943 67 352 1.7 4.3 0.00 0.00 0.00 50 1010.5
20260509153439 67 104 3.5 4.3 0.00 0.00 0.00 49 1010.1
20260509152937 66 353 1.7 5.2 0.00 0.00 0.00 51 1010.3
20260509152432 66 346 0.9 3.5 0.00 0.00 0.00 52 1010.5
20260509151929 67 53 2.6 5.2 0.00 0.00 0.00 52 1010.4
20260509151425 66 57 1.7 5.2 0.00 0.00 0.00 54 1010.5
20260509150924 66 82 3.5 6.1 0.00 0.00 0.00 49 1010.5
20260509150421 66 45 0.0 2.6 0.00 0.00 0.00 50 1010.6
20260509145919 67 76 4.3 7.0 0.00 0.00 0.00 50 1010.6
20260509145419 66 224 2.6 3.5 0.00 0.00 0.00 54 1010.7
20260509144915 66 202 2.6 3.5 0.00 0.00 0.00 53 1010.8
20260509144412 65 77 2.6 2.6 0.00 0.00 0.00 54 1010.8
20260509143909 64 191 0.0 2.6 0.00 0.00 0.00 55 1011.0
20260509143407 64 219 1.7 1.7 0.00 0.00 0.00 55 1011.0
20260509142902 62 54 0.9 1.7 0.00 0.00 0.00 61 1010.8
20260509142359 62 134 1.7 3.5 0.00 0.00 0.00 58 1010.9
20260509141854 62 38 0.0 0.9 0.00 0.00 0.00 60 1011.2
20260509141352 61 138 0.0 2.6 0.00 0.00 0.00 61 1010.9
20260509140848 61 220 3.5 6.1 0.00 0.00 0.00 62 1011.2
20260509140345 60 161 3.5 5.2 0.00 0.00 0.00 59 1011.0
20260509135843 60 206 2.6 4.3 0.00 0.00 0.00 60 1010.6
20260509135341 60 184 1.7 2.6 0.00 0.00 0.00 58 1010.5
20260509134838 60 188 1.7 2.6 0.00 0.00 0.00 61 1010.6
20260509134335 60 179 1.7 3.5 0.00 0.00 0.00 60 1010.7
20260509133831 60 142 2.6 3.5 0.00 0.00 0.00 59 1010.7
20260509133328 60 140 0.9 2.6 0.00 0.00 0.00 58 1010.7
20260509132827 60 182 1.7 1.7 0.00 0.00 0.00 60 1010.6
20260509132325 60 134 2.6 3.5 0.00 0.00 0.00 58 1010.8
20260509131822 60 86 2.6 2.6 0.00 0.00 0.00 62 1010.5
20260509131319 60 190 1.7 4.3 0.00 0.00 0.00 60 1010.9
20260509130815 60 186 2.6 3.5 0.00 0.00 0.00 59 1010.7
20260509130311 60 192 3.5 3.5 0.00 0.00 0.00 63 1010.9
20260509125808 59 194 2.6 5.2 0.00 0.00 0.00 62 1010.8
20260509125307 58 179 1.7 4.3 0.00 0.00 0.00 65 1011.1
20260509124801 58 224 1.7 3.5 0.00 0.00 0.00 64 1010.9
20260509124257 58 177 1.7 3.5 0.00 0.00 0.00 65 1010.6
20260509123755 58 151 1.7 3.5 0.00 0.00 0.00 68 1010.8
20260509123252 58 144 1.7 2.6 0.00 0.00 0.00 67 1010.8
20260509122748 57 109 1.7 1.7 0.00 0.00 0.00 68 1010.4
20260509122245 57 68 1.7 1.7 0.00 0.00 0.00 69 1010.5
20260509121742 57 133 1.7 1.7 0.00 0.00 0.00 66 1011.0
20260509121239 57 135 0.0 1.7 0.00 0.00 0.00 70 1010.9
20260509120737 57 213 0.0 1.7 0.00 0.00 0.00 67 1011.0
20260509120235 57 119 1.7 1.7 0.00 0.00 0.00 70 1011.0
20260509115733 56 182 1.7 4.3 0.00 0.00 0.00 69 1010.9
20260509115229 56 154 2.6 3.5 0.00 0.00 0.00 70 1010.7
20260509114728 56 84 2.6 3.5 0.00 0.00 0.00 70 1010.6
20260509114226 56 73 0.9 2.6 0.00 0.00 0.00 71 1010.6
20260509113725 56 137 1.7 1.7 0.00 0.00 0.00 71 1010.8
20260509113221 56 78 0.9 2.6 0.00 0.00 0.00 71 1010.8
20260509112718 55 84 1.7 2.6 0.00 0.00 0.00 70 1010.6
20260509112215 55 89 0.0 1.7 0.00 0.00 0.00 72 1010.6
20260509111713 54 61 0.9 1.7 0.00 0.00 0.00 74 1010.7
20260509111209 54 46 1.7 2.6 0.00 0.00 0.00 76 1010.3
20260509110707 53 33 1.7 2.6 0.00 0.00 0.00 76 1010.4
20260509110203 53 50 1.7 2.6 0.00 0.00 0.00 77 1010.5
20260509105701 52 27 2.6 3.5 0.00 0.00 0.00 76 1010.3
20260509105158 52 338 0.9 1.7 0.00 0.00 0.00 78 1010.4
20260509104655 53 128 0.0 1.7 0.00 0.00 0.00 75 1010.1
20260509104152 53 190 0.9 2.6 0.00 0.00 0.00 68 1010.1
20260509103650 53 96 2.6 2.6 0.00 0.00 0.00 67 1010.3
20260509103147 53 31 1.7 2.6 0.00 0.00 0.00 70 1010.3
20260509102645 53 47 2.6 2.6 0.00 0.00 0.00 66 1010.3
20260509102142 53 96 1.7 2.6 0.00 0.00 0.00 66 1010.4
20260509101638 53 50 0.0 1.7 0.00 0.00 0.00 66 1010.0
20260509101135 53 70 1.7 1.7 0.00 0.00 0.00 68 1010.2
20260509100632 53 19 0.9 2.6 0.00 0.00 0.00 66 1010.0
20260509100130 53 62 0.0 1.7 0.00 0.00 0.00 65 1010.0
20260509095626 53 84 1.7 2.6 0.00 0.00 0.00 66 1010.0
20260509095124 53 70 1.7 1.7 0.00 0.00 0.00 66 1010.0
20260509094620 53 71 0.9 1.7 0.00 0.00 0.00 64 1010.1
20260509094117 54 138 0.0 1.7 0.00 0.00 0.00 64 1010.0
20260509093616 54 162 0.9 2.6 0.00 0.00 0.00 64 1010.1
20260509093112 54 111 0.9 2.6 0.00 0.00 0.00 64 1010.1
20260509092610 54 154 1.7 2.6 0.00 0.00 0.00 65 1010.1
20260509092108 54 173 1.7 1.7 0.00 0.00 0.00 65 1010.1
20260509091606 54 175 1.7 2.6 0.00 0.00 0.00 65 1010.0
20260509091102 54 167 1.7 2.6 0.00 0.00 0.00 65 1010.2
20260509090559 54 205 1.7 2.6 0.00 0.00 0.00 65 1010.0
20260509090057 54 192 1.7 2.6 0.00 0.00 0.00 66 1010.2
20260509085554 54 172 1.7 2.6 0.00 0.00 0.00 65 1010.1
20260509085050 54 181 1.7 2.6 0.00 0.00 0.00 65 1010.3
20260509084547 54 182 1.7 2.6 0.00 0.00 0.00 65 1010.2
20260509084044 54 158 0.0 1.7 0.00 0.00 0.00 63 1010.2
20260509083542 54 180 1.7 2.6 0.00 0.00 0.00 64 1010.4
20260509083038 55 176 1.7 3.5 0.00 0.00 0.00 62 1010.4
20260509082536 54 154 1.7 2.6 0.00 0.00 0.00 62 1010.5
20260509082033 55 164 1.7 1.7 0.00 0.00 0.00 62 1010.3
20260509081530 54 136 0.9 2.6 0.00 0.00 0.00 62 1010.4
20260509081026 55 195 0.9 1.7 0.00 0.00 0.00 63 1010.4
20260509080525 55 181 1.7 3.5 0.00 0.00 0.00 62 1010.3
20260509080022 55 191 1.7 2.6 0.00 0.00 0.00 62 1010.3
20260509075519 55 194 1.7 1.7 0.00 0.00 0.00 62 1010.3
20260509075017 55 207 1.7 3.5 0.00 0.00 0.00 61 1010.3
20260509074514 55 205 1.7 2.6 0.00 0.00 0.00 62 1010.3
20260509074010 54 202 2.6 2.6 0.00 0.00 0.00 62 1010.4
20260509073507 54 184 1.7 2.6 0.00 0.00 0.00 64 1010.5
20260509073003 54 189 1.7 2.6 0.00 0.00 0.00 63 1010.5
20260509072500 54 180 1.7 3.5 0.00 0.00 0.00 64 1010.4
20260509071957 54 171 2.6 4.3 0.00 0.00 0.00 64 1010.3
20260509071453 54 188 2.6 3.5 0.00 0.00 0.00 64 1010.4
20260509070951 54 187 1.7 2.6 0.00 0.00 0.00 65 1010.5
20260509070448 54 177 1.7 3.5 0.00 0.00 0.00 65 1010.5
20260509065943 54 169 1.7 4.3 0.00 0.00 0.00 66 1010.3
20260509065439 53 181 2.6 3.5 0.00 0.00 0.00 66 1010.6
20260509064937 53 184 0.9 3.5 0.00 0.00 0.00 67 1010.7
20260509064435 53 185 2.6 3.5 0.00 0.00 0.00 67 1010.5
20260509063933 53 166 1.7 2.6 0.00 0.00 0.00 67 1010.7
20260509063433 53 159 1.7 2.6 0.00 0.00 0.00 68 1010.6
20260509062930 52 144 2.6 2.6 0.00 0.00 0.00 68 1010.6
20260509062427 52 162 0.0 1.7 0.00 0.00 0.00 67 1010.9
20260509061925 52 144 0.9 1.7 0.00 0.00 0.00 67 1011.0
20260509061422 52 172 0.9 1.7 0.00 0.00 0.00 67 1010.8
20260509060919 52 157 0.9 1.7 0.00 0.00 0.00 67 1010.9
20260509060417 53 180 1.7 2.6 0.00 0.00 0.00 68 1010.7
20260509055911 53 168 1.7 1.7 0.00 0.00 0.00 68 1011.1
20260509055407 53 159 1.7 1.7 0.00 0.00 0.00 68 1010.8
20260509054904 53 166 1.7 3.5 0.00 0.00 0.00 67 1010.8
20260509054401 53 184 1.7 1.7 0.00 0.00 0.00 68 1011.0
20260509053859 53 154 0.9 1.7 0.00 0.00 0.00 68 1011.1
20260509053356 53 145 0.9 1.7 0.00 0.00 0.00 66 1011.2
20260509052854 53 221 0.0 1.7 0.00 0.00 0.00 65 1011.1
20260509052351 52 296 0.0 0.9 0.00 0.00 0.00 68 1011.1
20260509051849 51 262 0.0 0.0 0.00 0.00 0.00 70 1011.1
20260509051347 52 77 0.0 1.7 0.00 0.00 0.00 68 1011.2
20260509050843 52 116 0.0 1.7 0.00 0.00 0.00 69 1011.2
20260509050340 53 117 0.9 1.7 0.00 0.00 0.00 69 1011.1
20260509045837 53 134 1.7 1.7 0.00 0.00 0.00 65 1011.0
20260509045334 52 80 1.7 1.7 0.00 0.00 0.00 65 1011.1
20260509044831 52 57 1.7 1.7 0.00 0.00 0.00 67 1011.2
20260509044329 52 65 1.7 1.7 0.00 0.00 0.00 68 1011.1
20260509043825 51 50 0.9 1.7 0.00 0.00 0.00 69 1011.3
20260509043321 51 121 1.7 1.7 0.00 0.00 0.00 69 1011.1
20260509042817 50 122 0.0 0.9 0.00 0.00 0.00 70 1011.2
20260509042314 51 113 1.7 1.7 0.00 0.00 0.00 71 1011.3
20260509041810 51 145 0.9 1.7 0.00 0.00 0.00 69 1011.1
20260509041308 53 163 1.7 2.6 0.00 0.00 0.00 64 1011.0
20260509040806 54 180 0.0 1.7 0.00 0.00 0.00 62 1011.2
20260509040303 54 209 0.0 1.7 0.00 0.00 0.00 61 1011.2
20260509035800 55 150 0.9 1.7 0.00 0.00 0.00 60 1011.3
20260509035256 54 197 0.9 1.7 0.00 0.00 0.00 62 1011.3
20260509034753 52 206 0.9 1.7 0.00 0.00 0.00 65 1011.3
20260509034251 51 235 0.0 0.9 0.00 0.00 0.00 69 1011.3